Weather History for Storm Lake, IA

Change the Weather History Date:

Friday, April 4, 2014

  Actual Average Record
Temperature  
Mean Temperature 32 °F -  
Max Temperature 35 °F 52 °F 80 °F (2005)
Min Temperature 28 °F 32 °F 19 °F (2007)
Degree Days  
Heating Degree Days 34    
Moisture  
Dew Point 30 °F    
Average Humidity 91    
Maximum Humidity 100    
Minimum Humidity 75    
Precipitation  
Precipitation 0.00 in - - ()
Sea Level Pressure  
Sea Level Pressure 29.94 in    
Wind  
Wind Speed 21 mph (NW)    
Max Wind Speed 31 mph    
Max Gust Speed 39 mph    
Visibility 6 miles    
Events Fog , Rain , Snow    
Averages and records for this station are not official NWS values.
T = Trace of Precipitation, MM = Missing Value Source: NWS Daily Summary

Daily Weather History Graph

Daily Weather History Graph

Search for Another Location

Airport:

Trip Planner

Search our weather history database for the weather conditions in past years. The results will help you decide how hot, cold, wet, or windy it might be!

Date:

Astronomy

Apr. 04, 2014 Rise Set
Actual Time 6:58 AM CDT 7:50 PM CDT
Civil Twilight 6:29 AM CDT 8:19 PM CDT
Nautical Twilight 5:55 AM CDT 8:53 PM CDT
Astronomical Twilight 5:20 AM CDT 9:28 PM CDT
Moon 10:11 AM CDT (4/4) 12:14 AM CDT (4/4)
Length of Visible Light 13h 49m
Length of Day
12h 52m
Waxing Crescent, 25% of the Moon is Illuminated
Apr 4
Waxing Crescent
Apr 7
First Quarter
Apr 15
Full
Apr 22
Last Quarter
Apr 29
New

Hourly Weather History & Observations

Time (CDT) Temp. Windchill Dew Point Humidity Pressure Visibility Wind Dir Wind Speed Gust Speed Precip Events Conditions
12:15 AM - - - N/A% 29.71 in 0.2 mi NNW 19.6 mph - N/A   Unknown
12:35 AM 28.4 °F 15.8 °F 28.4 °F 100% 29.72 in 0.2 mi NNW 18.4 mph 29.9 mph N/A Fog Light Freezing Fog
12:55 AM 28.4 °F 15.4 °F 28.4 °F 100% 29.72 in 0.5 mi NNW 19.6 mph - N/A Snow Light Snow
1:15 AM 28.4 °F 15.4 °F 28.4 °F 100% 29.73 in 1.2 mi NNW 19.6 mph - N/A Snow Light Snow
1:35 AM 28.4 °F 13.8 °F 28.4 °F 100% 29.74 in 1.5 mi NNW 25.3 mph - N/A Snow Light Snow
1:55 AM - - - N/A% 29.75 in 1.2 mi NW 21.9 mph 27.6 mph N/A   Unknown
2:15 AM 28.4 °F 14.7 °F 28.4 °F 100% 29.76 in 1.5 mi NNW 21.9 mph 31.1 mph N/A Snow Light Snow
2:35 AM 28.4 °F 15.1 °F 28.4 °F 100% 29.76 in 2.0 mi NW 20.7 mph - N/A Snow Light Snow
2:55 AM 28.4 °F 14.1 °F 28.4 °F 100% 29.76 in 0.5 mi NW 24.2 mph - N/A Snow Light Snow
3:15 AM 28.4 °F 15.1 °F 28.4 °F 100% 29.76 in 0.5 mi NW 20.7 mph 29.9 mph N/A Snow Light Snow
3:35 AM 28.4 °F 15.1 °F 28.4 °F 100% 29.77 in 0.5 mi NW 20.7 mph 31.1 mph N/A Snow Light Snow
3:55 AM 28.4 °F 14.4 °F 28.4 °F 100% 29.77 in 1.0 mi NW 23.0 mph - N/A   Overcast
4:15 AM 28.4 °F 13.5 °F 28.4 °F 100% 29.77 in 1.0 mi NW 26.5 mph - N/A   Overcast
4:35 AM 28.4 °F 13.8 °F 28.4 °F 100% 29.77 in 0.8 mi NW 25.3 mph - N/A   Overcast
4:55 AM 28.4 °F 13.0 °F 28.4 °F 100% 29.77 in 1.0 mi NW 28.8 mph 39.1 mph N/A   Overcast
5:15 AM 28.4 °F 13.3 °F 28.4 °F 100% 29.77 in 1.2 mi NW 27.6 mph 35.7 mph N/A   Overcast
5:35 AM 28.4 °F 13.0 °F 28.4 °F 100% 29.78 in 1.2 mi NNW 28.8 mph 39.1 mph N/A   Overcast
5:55 AM - - - N/A% 29.79 in 2.0 mi NW 27.6 mph 35.7 mph N/A   Unknown
6:15 AM 30.2 °F 15.9 °F 30.2 °F 100% 29.80 in 2.0 mi NW 26.5 mph 35.7 mph N/A Snow Light Snow
6:35 AM 30.2 °F 15.9 °F 30.2 °F 100% 29.81 in 2.5 mi NW 26.5 mph 35.7 mph N/A   Overcast
6:55 AM 30.2 °F 17.4 °F 30.2 °F 100% 29.82 in 4.0 mi NW 20.7 mph 29.9 mph N/A Snow Light Snow
7:15 AM 30.2 °F 16.2 °F 30.2 °F 100% 29.83 in 3.0 mi NW 25.3 mph - N/A Snow Light Snow
7:35 AM 32.0 °F 17.4 °F 32.0 °F 100% 29.85 in 2.0 mi NNW 31.1 mph - N/A Rain Light Rain
7:55 AM 32.0 °F 18.1 °F 32.0 °F 100% 29.86 in 2.0 mi NNW 27.6 mph 38.0 mph N/A Rain Light Rain
8:15 AM 32.0 °F 17.9 °F 32.0 °F 100% 29.87 in 3.0 mi NW 28.8 mph - N/A Rain Light Rain
8:35 AM 32.0 °F 18.1 °F 32.0 °F 100% 29.88 in 4.0 mi NW 27.6 mph 34.5 mph N/A   Overcast
8:55 AM 32.0 °F 17.4 °F 32.0 °F 100% 29.88 in 1.5 mi NNW 31.1 mph 36.8 mph N/A   Overcast
9:15 AM 32.0 °F 18.4 °F 30.2 °F 93% 29.89 in 3.0 mi NNW 26.5 mph 36.8 mph N/A   Overcast
9:35 AM 32.0 °F 18.1 °F 30.2 °F 93% 29.90 in 2.5 mi NNW 27.6 mph 34.5 mph N/A   Overcast
9:55 AM 32.0 °F 18.9 °F 30.2 °F 93% 29.92 in 4.0 mi NNW 24.2 mph 32.2 mph N/A   Overcast
10:15 AM 32.0 °F 19.2 °F 30.2 °F 93% 29.93 in 6.0 mi NNW 23.0 mph 32.2 mph N/A   Overcast
10:35 AM 32.0 °F 18.9 °F 30.2 °F 93% 29.94 in 5.0 mi NNW 24.2 mph 31.1 mph N/A   Overcast
10:55 AM 32.0 °F 18.9 °F 30.2 °F 93% 29.95 in 6.0 mi NNW 24.2 mph 29.9 mph N/A   Overcast
11:15 AM 32.0 °F 19.5 °F 30.2 °F 93% 29.95 in 8.0 mi NNW 21.9 mph 28.8 mph N/A   Overcast
11:35 AM 32.0 °F 17.9 °F 30.2 °F 93% 29.96 in 8.0 mi NNW 28.8 mph - N/A   Overcast
11:55 AM 33.8 °F 21.9 °F 32.0 °F 93% 29.97 in 9.0 mi NW 21.9 mph 28.8 mph N/A   Mostly Cloudy
12:15 PM 33.8 °F 22.2 °F 30.2 °F 87% 29.98 in 10.0 mi NW 20.7 mph 28.8 mph N/A   Mostly Cloudy
12:35 PM 33.8 °F 21.9 °F 30.2 °F 87% 29.99 in 10.0 mi NW 21.9 mph 31.1 mph N/A   Mostly Cloudy
12:55 PM 35.6 °F 24.8 °F 30.2 °F 81% 29.99 in 10.0 mi NW 19.6 mph 27.6 mph N/A   Partly Cloudy
1:15 PM 35.6 °F 24.0 °F 30.2 °F 81% 30.00 in 10.0 mi NW 23.0 mph - N/A   Scattered Clouds
1:55 PM 35.6 °F 23.7 °F 32.0 °F 87% 30.01 in 10.0 mi NW 24.2 mph - N/A   Mostly Cloudy
2:15 PM 35.6 °F 24.2 °F 32.0 °F 87% 30.01 in 10.0 mi NW 21.9 mph 28.8 mph N/A   Mostly Cloudy
2:35 PM 35.6 °F 24.2 °F 32.0 °F 87% 30.02 in 10.0 mi NW 21.9 mph - N/A   Mostly Cloudy
2:55 PM 35.6 °F 24.8 °F 30.2 °F 81% 30.02 in 10.0 mi NW 19.6 mph 28.8 mph N/A   Overcast
3:15 PM 35.6 °F 25.2 °F 32.0 °F 87% 30.02 in 10.0 mi NW 18.4 mph 24.2 mph N/A   Overcast
3:35 PM 35.6 °F 25.5 °F 32.0 °F 87% 30.03 in 10.0 mi NW 17.3 mph 24.2 mph N/A   Overcast
3:55 PM 35.6 °F 25.9 °F 32.0 °F 87% 30.03 in 10.0 mi NW 16.1 mph 25.3 mph N/A   Overcast
4:15 PM 35.6 °F 24.8 °F 30.2 °F 81% 30.04 in 10.0 mi NW 19.6 mph 25.3 mph N/A   Overcast
4:35 PM 35.6 °F 25.5 °F 30.2 °F 81% 30.04 in 10.0 mi NW 17.3 mph 25.3 mph N/A   Overcast
4:55 PM 35.6 °F 25.9 °F 30.2 °F 81% 30.04 in 10.0 mi NW 16.1 mph 23.0 mph N/A   Overcast
5:15 PM 35.6 °F 25.2 °F 28.4 °F 75% 30.05 in 10.0 mi NW 18.4 mph 24.2 mph N/A   Overcast
5:35 PM 35.6 °F 25.2 °F 30.2 °F 81% 30.05 in 10.0 mi WNW 18.4 mph - N/A   Overcast
5:55 PM 35.6 °F 26.6 °F 28.4 °F 75% 30.05 in 10.0 mi NW 13.8 mph 23.0 mph N/A   Mostly Cloudy
6:15 PM 35.6 °F 26.2 °F 28.4 °F 75% 30.06 in 10.0 mi WNW 15.0 mph 23.0 mph N/A   Overcast
6:35 PM 35.6 °F 25.9 °F 28.4 °F 75% 30.07 in 10.0 mi WNW 16.1 mph - N/A   Overcast
6:55 PM 35.6 °F 26.2 °F 30.2 °F 81% 30.07 in 10.0 mi WNW 15.0 mph - N/A   Overcast
7:15 PM 33.8 °F 25.3 °F 30.2 °F 87% 30.08 in 10.0 mi WNW 11.5 mph - N/A   Overcast
7:35 PM 33.8 °F 24.8 °F 30.2 °F 87% 30.08 in 10.0 mi WNW 12.7 mph - N/A   Overcast
7:55 PM 33.8 °F 24.3 °F 26.6 °F 75% 30.08 in 10.0 mi NW 13.8 mph - N/A   Overcast
8:15 PM 33.8 °F 25.8 °F 28.4 °F 81% 30.08 in 10.0 mi WNW 10.4 mph - N/A   Overcast
8:35 PM 33.8 °F 25.3 °F 28.4 °F 81% 30.08 in 10.0 mi NW 11.5 mph - N/A   Overcast
8:55 PM 33.8 °F 26.4 °F 28.4 °F 81% 30.09 in 10.0 mi NW 9.2 mph - N/A   Overcast
9:15 PM 32.0 °F 24.8 °F 28.4 °F 87% 30.09 in 10.0 mi WNW 8.1 mph - N/A   Overcast
9:35 PM 32.0 °F 25.6 °F 28.4 °F 87% 30.10 in 10.0 mi WNW 6.9 mph - N/A   Scattered Clouds
9:55 PM 32.0 °F 25.6 °F 28.4 °F 87% 30.11 in 10.0 mi West 6.9 mph - N/A   Scattered Clouds
10:15 PM 30.2 °F 23.4 °F 28.4 °F 93% 30.11 in 10.0 mi West 6.9 mph - N/A   Mostly Cloudy
10:35 PM 30.2 °F 23.4 °F 28.4 °F 93% 30.11 in 10.0 mi West 6.9 mph - N/A   Mostly Cloudy
10:55 PM 30.2 °F 23.4 °F 28.4 °F 93% 30.11 in 10.0 mi West 6.9 mph - N/A   Scattered Clouds
11:15 PM 32.0 °F 26.4 °F 28.4 °F 87% 30.12 in 10.0 mi West 5.8 mph - N/A   Clear
11:35 PM 30.2 °F 24.3 °F 28.4 °F 93% 30.12 in 10.0 mi West 5.8 mph - N/A   Clear
11:55 PM 30.2 °F 24.3 °F 28.4 °F 93% 30.12 in 10.0 mi WSW 5.8 mph - N/A   Clear